EW5401 Weather Reports


time (UTC)temp
C
wind
direction
speed
KPH
gust
KPH
rain 1hr
cm
rain 24hr
cm
rain mn
cm
humidity
%
barometer
mb
20260508000059 10 79 1.6 6.4 0.00 0.13 0.00 47 1008.1
20260507234601 11 63 0.0 6.4 0.00 0.15 0.00 48 1007.9
20260507233115 11 63 0.0 6.4 0.00 0.15 0.00 45 1007.8
20260507231553 11 298 0.0 16.1 0.00 0.15 0.00 45 1007.6
20260507230054 12 300 3.2 9.7 0.00 0.15 0.00 44 1007.6
20260507224553 12 10 3.2 9.7 0.00 0.15 0.00 43 1007.5
20260507223104 12 290 3.2 14.5 0.00 0.15 0.00 44 1007.5
20260507221554 13 311 6.4 17.7 0.00 0.15 0.00 43 1007.4
20260507220051 13 265 3.2 20.9 0.00 0.15 0.00 44 1007.6
20260507214551 13 106 3.2 12.9 0.00 0.15 0.00 43 1007.4
20260507213050 12 296 3.2 16.1 0.00 0.15 0.00 48 1007.5
20260507211557 12 263 3.2 19.3 0.00 0.15 0.00 47 1007.4
20260507210106 13 20 8.0 20.9 0.00 0.15 0.00 47 1007.2
20260507204549 13 320 6.4 16.1 0.00 0.15 0.00 45 1007.2
20260507203046 13 219 6.4 14.5 0.00 0.15 0.00 45 1007.2
20260507201545 13 254 1.6 16.1 0.00 0.15 0.00 48 1007.3
20260507200053 13 316 8.0 24.1 0.00 0.15 0.00 43 1007.3
20260507194550 14 28 4.8 17.7 0.00 0.33 0.00 44 1007.5
20260507193042 14 255 4.8 12.9 0.00 0.33 0.00 45 1007.6
20260507191544 13 39 8.0 19.3 0.00 0.33 0.00 45 1007.9
20260507190047 13 327 4.8 16.1 0.00 0.33 0.00 45 1007.9
20260507184544 13 279 8.0 19.3 0.00 0.46 0.00 49 1008.1
20260507183046 12 238 4.8 16.1 0.00 0.46 0.00 47 1008.0
20260507181535 12 326 4.8 17.7 0.00 0.46 0.00 45 1008.3
20260507180036 12 325 4.8 12.9 0.00 0.46 0.00 47 1008.5
20260507174536 13 317 6.4 16.1 0.00 0.56 0.00 45 1008.8
20260507173043 13 272 4.8 17.7 0.00 0.56 0.00 50 1008.7
20260507171529 12 259 4.8 17.7 0.00 0.56 0.00 50 1008.8
20260507170028 11 331 6.4 17.7 0.00 0.56 0.00 51 1008.9
20260507164535 12 313 4.8 14.5 0.00 0.79 0.00 54 1008.9
20260507163027 12 321 4.8 19.3 0.00 0.79 0.00 54 1009.0
20260507161525 12 76 6.4 24.1 0.00 0.79 0.00 45 1009.4
20260507160027 12 306 6.4 27.4 0.00 0.79 0.00 48 1009.7
20260507154522 12 205 4.8 20.9 0.00 0.81 0.00 54 1009.8
20260507153024 11 319 6.4 20.9 0.00 0.81 0.00 51 1010.0
20260507151519 11 296 8.0 19.3 0.00 0.81 0.00 50 1010.0
20260507150017 10 284 9.7 20.9 0.00 0.81 0.00 48 1009.9
20260507144517 10 316 12.9 24.1 0.00 0.81 0.00 49 1010.1
20260507143021 11 296 8.0 19.3 0.00 0.81 0.00 54 1009.9
20260507141518 10 306 9.7 24.1 0.00 0.81 0.00 47 1010.1
20260507140017 10 32 6.4 22.5 0.00 0.81 0.00 49 1010.2
20260507134509 9 280 8.0 20.9 0.00 0.81 0.00 53 1010.0
20260507133007 9 319 8.0 22.5 0.00 0.81 0.00 54 1010.1
20260507131515 8 320 4.8 17.7 0.00 0.81 0.00 62 1010.2
20260507130003 8 32 4.8 19.3 0.00 0.81 0.00 59 1010.0
20260507124508 8 294 9.7 24.1 0.00 0.81 0.00 62 1009.9
20260507123101 8 313 12.9 30.6 0.00 0.81 0.00 60 1010.0
20260507121558 8 330 8.0 22.5 0.00 0.81 0.00 68 1009.9
20260507120056 7 308 3.2 16.1 0.00 0.81 0.00 73 1009.9
20260507114608 7 347 3.2 19.3 0.00 0.81 0.00 75 1009.8
20260507113124 7 340 3.2 20.9 0.00 0.81 0.00 74 1009.7
20260507111557 6 242 4.8 20.9 0.00 0.81 0.00 76 1009.8
20260507110049 6 328 1.6 6.4 0.00 0.81 0.00 76 1009.6
20260507104546 6 271 0.0 14.5 0.00 0.81 0.00 76 1009.3
20260507103050 6 340 3.2 25.7 0.00 0.81 0.00 77 1009.1
20260507101545 6 46 0.0 8.0 0.00 0.81 0.00 81 1008.6
20260507100038 7 285 1.6 9.7 0.00 0.81 0.00 85 1008.5
20260507094536 7 308 3.2 12.9 0.00 0.81 0.00 86 1008.6
20260507093035 7 301 0.0 12.9 0.00 0.81 0.00 87 1008.4
20260507091536 7 293 0.0 4.8 0.00 0.81 0.00 87 1008.4
20260507090029 7 297 0.0 6.4 0.00 0.81 0.00 88 1008.6
20260507084539 7 326 1.6 8.0 0.00 0.81 0.00 88 1008.7
20260507083027 7 178 0.0 9.7 0.00 0.81 0.00 89 1008.9
20260507081535 7 344 1.6 11.3 0.00 0.81 0.00 90 1008.8
20260507080022 7 297 0.0 6.4 0.00 0.81 0.00 91 1008.7
20260507074520 7 320 0.0 0.0 0.00 0.81 0.00 91 1008.8
20260507073019 7 320 0.0 1.6 0.00 0.81 0.00 91 1008.5
20260507071519 7 320 0.0 4.8 0.00 0.81 0.00 90 1008.2
20260507070017 8 320 0.0 4.8 0.00 0.81 0.00 90 1007.8
20260507064515 8 319 0.0 3.2 0.00 0.81 0.00 90 1007.7
20260507063013 8 309 0.0 4.8 0.00 0.81 0.00 90 1007.8
20260507061514 8 313 0.0 6.4 0.00 0.81 0.00 90 1007.8
20260507060012 8 82 0.0 6.4 0.00 0.81 0.00 90 1007.4
20260507054512 8 55 0.0 6.4 0.00 0.81 0.00 90 1007.4
20260507053010 8 355 1.6 6.4 0.00 0.81 0.00 90 1007.5
20260507051507 8 304 4.8 14.5 0.00 0.81 0.00 90 1008.2
20260507050008 8 355 0.0 3.2 0.00 0.81 0.00 91 1008.1
20260507044503 8 45 3.2 4.8 0.00 0.81 0.00 91 1008.2
20260507043001 8 315 0.0 12.9 0.00 0.81 0.00 91 1008.5
20260507041601 8 309 0.0 6.4 0.00 0.81 0.00 91 1008.0
20260507040055 9 314 0.0 0.0 0.00 0.81 0.00 92 1007.8
20260507034555 9 67 0.0 1.6 0.00 0.81 0.81 92 1007.7
20260507033054 9 67 0.0 3.2 0.00 0.81 0.81 91 1008.0
20260507031552 9 314 0.0 3.2 0.00 0.81 0.81 92 1008.1
20260507030051 9 314 1.6 4.8 0.00 0.81 0.81 91 1008.2
20260507024552 9 46 1.6 6.4 0.03 0.81 0.81 92 1008.2
20260507023102 9 42 1.6 4.8 0.03 0.81 0.81 92 1008.1
20260507021545 10 21 0.0 4.8 0.05 0.81 0.81 92 1008.1
20260507020050 10 69 0.0 1.6 0.08 0.81 0.81 92 1008.1
20260507014541 10 69 0.0 0.0 0.10 0.79 0.79 92 1008.1
20260507013040 10 69 0.0 3.2 0.10 0.79 0.79 91 1007.7
20260507011545 10 69 0.0 4.8 0.08 0.76 0.76 91 1007.7
20260507010037 10 28 0.0 3.2 0.05 0.71 0.71 91 1007.8
20260507004535 10 63 0.0 6.4 0.00 0.69 0.69 90 1007.3
20260507003030 11 312 0.0 1.6 0.03 0.69 0.69 90 1007.0
20260507001601 11 49 1.6 6.4 0.03 0.69 0.69 90 1006.5